Location: Cutler
(25.6150°N, 80.3110°W)
Time: 09:37:34
(UTC-04:00)

Vanguard 1 Rocket - Visible Passes

Search period start: 17 July 2018 00:00
Search period end: 27 July 2018 00:00
Orbit: 652 x 4225 km, 34.3° (Epoch: 16 July)

Date Brightness Start Highest point End Pass type
(mag) Time Alt. Az. Time Alt. Az. Time Alt. Az.
17 Jul 11.6 05:15:26 10° S 05:33:28 24° SE 05:48:55 10° E visible
18 Jul 11.7 04:08:47 10° SSE 04:18:29 13° SE 04:27:53 10° ESE visible
19 Jul 11.5 05:15:38 10° SSW 05:36:20 31° SE 05:53:55 10° E visible
20 Jul 11.6 04:06:24 10° S 04:21:33 19° SE 04:36:11 10° E visible
21 Jul 11.3 05:16:29 10° SSW 05:38:59 39° SE 05:58:10 10° E visible
22 Jul 11.4 04:07:33 12° S 04:24:17 26° SE 04:42:02 10° E visible
23 Jul 11.5 03:00:32 11° SSE 03:09:48 14° SE 03:20:16 10° ESE visible
23 Jul 11.1 05:17:49 10° SSW 05:41:29 47° SE 06:01:57 10° ENE visible
24 Jul 11.2 04:10:48 17° S 04:26:47 33° SE 04:46:45 10° E visible
25 Jul 11.4 03:03:45 16° SSE 03:12:30 20° SE 03:28:05 10° E visible
25 Jul 11.0 05:21:03 13° SSW 05:43:54 56° SE 06:05:26 10° ENE visible
26 Jul 11.0 04:13:58 22° S 04:29:06 41° SE 04:50:48 10° ENE visible
